Weather History for Wautoma, WI

Change the Weather History Date:

Monday, January 7, 2013

  Actual Average (KPCZ) Record (KPCZ)
Temperature  
Mean Temperature 20 °F -  
Max Temperature 36 °F 23 °F 44 °F (1949)
Min Temperature 3 °F 5 °F -22 °F (1968)
Degree Days  
Heating Degree Days 46    
Moisture  
Dew Point 13 °F    
Average Humidity 80    
Maximum Humidity 100    
Minimum Humidity 53    
Precipitation  
Precipitation 0.00 in - - ()
Sea Level Pressure  
Sea Level Pressure 30.09 in    
Wind  
Wind Speed 3 mph (SSW)    
Max Wind Speed 17 mph    
Max Gust Speed 25 mph    
Visibility 8 miles    
Events Fog    
Averages and records for this station are not official NWS values.
T = Trace of Precipitation, MM = Missing Value Source: NWS Daily Summary

Daily Weather History Graph

Daily Weather History Graph

Search for Another Location

Airport:

Trip Planner

Search our weather history database for the weather conditions in past years. The results will help you decide how hot, cold, wet, or windy it might be!

Date:

Astronomy

Jan. 07, 2013 Rise Set
Actual Time 7:31 AM CST 4:35 PM CST
Civil Twilight 6:59 AM CST 5:08 PM CST
Nautical Twilight 6:22 AM CST 5:44 PM CST
Astronomical Twilight 5:48 AM CST 6:19 PM CST
Moon 2:53 AM CST (1/7) 12:48 PM CST (1/7)
Length of Visible Light 10h 09m
Length of Day
9h 04m
Waning Crescent, 22% of the Moon is Illuminated
Jan 7
Waning Crescent
Jan 11
New
Jan 18
First Quarter
Jan 26
Full
Feb 3
Last Quarter

Hourly Weather History & Observations

Time (CST) Temp. Windchill Dew Point Humidity Pressure Visibility Wind Dir Wind Speed Gust Speed Precip Events Conditions
12:13 AM 5.0 °F - 3.2 °F 92% 30.22 in 1.5 mi Calm Calm - N/A   Clear
12:20 AM 3.2 °F - 1.4 °F 92% 30.22 in 1.2 mi Calm Calm - N/A   Clear
12:23 AM 5.0 °F - 1.4 °F 85% 30.21 in 2.5 mi Calm Calm - N/A   Clear
12:30 AM 3.2 °F - 1.4 °F 92% 30.21 in 7.0 mi Calm Calm - N/A   Clear
12:56 AM 4.1 °F - 1.0 °F 87% 30.24 in 7.0 mi Calm Calm - N/A   Clear
1:56 AM 3.0 °F - 0.1 °F 88% 30.25 in 10.0 mi Calm Calm - N/A   Clear
2:56 AM 3.0 °F - 0.1 °F 88% 30.23 in 10.0 mi Calm Calm - N/A   Clear
3:56 AM 7.2 °F - 4.1 °F 87% 30.20 in 9.0 mi Calm Calm - N/A   Clear
4:56 AM 10.0 °F 3.6 °F 8.1 °F 92% 30.17 in 10.0 mi South 3.5 mph - N/A   Clear
5:56 AM 10.0 °F 3.6 °F 8.1 °F 92% 30.14 in 10.0 mi South 3.5 mph - N/A   Clear
6:56 AM 14.0 °F - 11.1 °F 88% 30.14 in 10.0 mi Calm Calm - N/A   Clear
7:56 AM 16.2 °F 9.0 °F 11.1 °F 81% 30.12 in 10.0 mi South 4.6 mph - N/A   Clear
9:56 AM 27.1 °F 16.9 °F 15.1 °F 60% 30.07 in 10.0 mi South 11.5 mph - N/A   Clear
10:56 AM 32.0 °F 21.2 °F 18.1 °F 57% 30.05 in 10.0 mi SW 16.1 mph 25.3 mph N/A   Clear
11:56 AM 32.9 °F 22.0 °F 19.0 °F 57% 30.01 in 10.0 mi SW 17.3 mph 25.3 mph N/A   Clear
12:56 PM 36.9 °F 27.1 °F 21.0 °F 53% 29.99 in 10.0 mi SW 17.3 mph 23.0 mph N/A   Clear
1:56 PM 36.9 °F 27.8 °F 22.1 °F 55% 29.98 in 10.0 mi SW 15.0 mph 24.2 mph N/A   Clear
2:56 PM 36.9 °F 30.1 °F 23.0 °F 57% 29.98 in 10.0 mi SW 9.2 mph 21.9 mph N/A   Clear
3:56 PM 36.0 °F 30.3 °F 24.1 °F 62% 30.00 in 10.0 mi SW 6.9 mph - N/A   Clear
4:56 PM 34.0 °F 26.6 °F 23.0 °F 64% 30.00 in 10.0 mi SSW 9.2 mph - N/A   Clear
5:56 PM 33.8 °F 27.0 °F 23.0 °F 65% 29.97 in 10.0 mi SSW 8.1 mph - N/A   Clear
6:56 PM 31.1 °F 25.4 °F 23.0 °F 72% 30.02 in 10.0 mi SSW 5.8 mph - N/A   Clear
7:56 PM 29.1 °F - 23.0 °F 78% 30.02 in 10.0 mi Calm Calm - N/A   Clear
8:56 PM 23.0 °F - 19.0 °F 85% 30.03 in 10.0 mi Calm Calm - N/A   Clear
9:56 PM 24.1 °F - 22.1 °F 92% 30.03 in 10.0 mi Calm Calm - N/A   Clear
10:56 PM 17.1 °F - 17.1 °F 100% 30.04 in 0.8 mi Calm Calm - N/A   Clear
11:03 PM 15.8 °F - 15.8 °F 100% 30.02 in 0.5 mi Calm Calm - N/A Fog Light Freezing Fog
11:23 PM 15.8 °F - 15.8 °F 100% 30.01 in 0.2 mi Calm Calm - N/A Fog Light Freezing Fog
11:56 PM 15.8 °F - 15.8 °F 100% 30.01 in 0.5 mi Calm Calm - N/A Fog Light Freezing Fog